Cloud_Cover
5 74 64 2 1 4 18 100 5 6 9 0 0 0 1 3 17 37 5 3 5 4 2 4 0 0 0 0 0 0 0 0 0 0 0 1 1 0 0 0 0 0 0 0 0 0 9 5 35
5 100 7 2 3 81 100 100 100 74 1 0 0 0 0 0 5 12 7 5 5 24 52 34 0 0 0 0 0 0 0 0 0 0 4 9 4 0 0 0 0 0 0 0 0 0 0 5 5
90 77 0 10 69 98 99 100 100 100 3 2 1 0 1 5 4 5 7 5 7 96 100 4 0 0 0 0 0 0 0 0 0 0 0 0 0 0 4 0 0 0 0 0 0 0 0 1 5
98 67 54 5 50 100 6 100 100 100 79 62 11 0 3 5 4 3 9 5 98 67 4 0 0 5 0 0 0 0 0 0 0 0 0 0 0 0 3 2 0 1 0 0 0 1 1 0 2
5 5 5 68 89 96 57 92 100 100 100 12 23 17 1 6 5 7 5 15 97 5 0 1 5 5 1 0 0 0 0 0 0 0 0 0 0 0 4 0 0 2 0 0 0 1 9 3 0
5 13 81 81 100 100 95 91 65 95 90 75 52 15 1 1 5 9 62 100 100 2 3 5 5 2 0 0 0 0 0 0 0 0 0 0 0 0 0 0 0 0 5 0 0 0 0 3 0
7 100 100 100 96 76 97 32 5 63 100 100 4 5 4 7 6 6 97 100 5 4 0 5 5 5 0 0 0 0 0 0 0 0 0 0 0 0 0 0 0 0 10 31 0 0 0 0 0
100 100 100 100 100 100 99 28 59 100 100 9 5 5 81 92 100 78 92 34 4 2 6 5 0 0 0 0 0 4 0 0 0 0 0 68 35 2 0 0 1 0 0 5 0 0 0 0 0
100 81 100 23 100 98 95 100 100 100 82 0 18 50 94 100 83 78 84 47 2 23 5 0 0 0 0 6 5 0 10 5 1 3 58 99 62 83 34 18 0 0 0 1 5 0 0 0 0
94 100 100 82 56 93 100 100 100 91 14 5 9 39 99 100 59 10 5 5 31 5 3 0 0 2 15 60 1 6 49 36 13 34 92 76 88 95 82 35 0 1 5 3 3 3 0 0 31
97 100 88 100 100 100 100 100 100 19 22 25 100 84 100 100 9 5 5 83 71 5 7 5 1 84 90 19 0 1 42 94 99 91 100 100 58 72 78 23 81 7 6 29 5 6 0 0 15
100 100 100 100 100 100 100 100 98 100 73 95 17 92 96 60 7 81 100 100 100 100 55 18 93 100 52 0 0 21 64 73 62 88 92 71 80 18 13 6 5 44 18 20 14 6 3 0 98
100 100 100 100 100 46 99 100 81 57 32 90 23 76 100 54 97 100 99 100 100 90 100 81 100 21 22 8 15 29 74 49 100 94 66 95 88 23 13 56 24 97 47 24 56 15 16 46 61
100 100 100 100 100 100 100 98 84 28 74 100 98 100 100 100 100 92 20 24 100 100 99 83 0 5 2 5 53 64 26 100 100 97 34 100 100 90 32 45 32 51 57 100 21 5 98 10 1
100 100 100 100 100 16 35 100 87 98 81 91 100 94 100 99 100 73 18 100 100 91 7 0 0 0 0 30 64 16 68 100 62 84 100 100 100 44 56 10 55 3 55 100 14 5 94 0 66
100 100 93 42 83 100 100 84 99 81 16 5 100 98 94 98 79 95 100 82 6 1 0 0 0 0 3 12 94 10 15 59 20 97 100 100 100 84 100 52 22 66 3 36 7 55 6 50 64
100 99 100 100 100 100 25 24 76 90 41 84 100 100 99 91 30 0 0 0 0 0 0 0 0 0 0 12 59 11 25 62 60 85 94 98 76 34 90 84 24 20 5 4 83 28 74 14 80
100 93 17 34 82 100 100 52 82 68 15 88 94 34 4 0 0 0 0 0 0 0 0 0 0 0 0 18 100 95 17 34 25 70 100 89 13 55 100 89 61 38 9 15 23 4 30 93 100
96 100 100 100 72 54 71 31 24 65 21 0 0 0 0 0 0 0 0 0 0 0 0 0 0 0 2 34 89 78 100 61 97 100 61 73 66 56 100 13 56 17 10 5 12 95 100 100 100
100 100 37 5 5 81 27 5 4 1 0 0 0 0 0 0 0 0 0 0 0 1 4 0 0 0 4 11 100 100 6 81 100 90 77 99 100 69 80 48 4 22 6 24 12 10 88 5 89
5 13 2 5 35 65 3 0 5 5 0 0 0 0 0 0 0 0 0 0 0 18 0 0 0 0 58 73 99 46 91 84 100 100 95 100 72 95 94 67 12 5 55 10 5 8 5 5 6
75 3 0 3 5 5 6 0 5 1 0 0 0 0 0 0 0 0 0 0 0 5 0 0 0 0 100 13 15 98 100 100 90 86 100 100 94 69 97 75 40 0 55 6 17 5 11 5 39
0 1 5 5 5 4 5 2 0 5 7 0 0 2 0 0 0 0 0 0 1 4 0 0 0 4 100 40 6 65 15 18 100 100 100 100 98 75 98 99 90 1 93 13 100 59 10 5 42
0 1 0 5 5 0 2 3 5 9 33 0 0 4 0 0 0 0 5 2 5 0 0 0 0 0 100 19 86 52 35 61 100 100 100 83 100 100 94 97 100 20 5 4 19 81 5 18 6
0 0 0 4 7 4 38 5 0 0 3 0 0 5 0 0 0 0 3 1 0 0 0 0 0 0 68 82 60 93 100 54 100 100 100 80 78 100 100 100 100 100 65 30 12 25 100 46 6
5 5 0 5 48 34 58 4 4 0 0 0 0 0 0 0 0 0 5 0 0 0 0 0 0 0 51 5 8 15 82 74 100 100 100 100 79 61 100 99 100 99 93 22 9 98 80 10 82
8 2 2 5 2 20 55 11 7 1 8 9 1 1 4 0 0 0 0 0 0 0 0 0 0 0 26 97 5 12 71 86 100 100 100 100 100 80 100 97 100 100 72 52 97 100 100 100 100
5 3 2 5 5 29 48 19 100 1 56 18 0 3 0 0 0 3 0 5 0 0 0 0 0 0 3 76 5 41 78 93 96 100 100 100 100 98 100 67 69 100 100 100 100 100 100 100 100
5 18 5 24 26 26 87 46 94 25 24 54 41 0 0 0 0 0 5 6 0 0 0 0 0 0 0 36 4 5 71 95 100 100 53 100 100 100 100 88 37 100 100 100 100 100 100 100 100
10 70 93 100 36 5 34 100 15 1 34 50 98 0 0 0 0 3 4 0 0 0 0 0 0 0 0 8 10 7 84 100 100 100 100 100 100 100 97 100 67 99 100 100 100 100 100 100 100